DRUMS TARGET-1 (55685 NORAD) Tracking and Keplerian Element Data

This shows tracking and keplerian element data for the satellite.

Feedback or suggestion? Click here.




ElementValue
Catalog55685
NameDRUMS TARGET-1
Epoch Orbit204
Epoch Day62.87481778
Epoch Year2023
RAAN119.4194
Inclination97.5013
Eccentricity0.0020573
Argument of Perigee60.943
Mean Anonmoly299.3906
Mean Motion15.04840587
Decay Rate0.0002152
L11 55685U 21102M 23062.87481778 .00021520 00000+0 15167-2 0 9999
L22 55685 97.5013 119.4194 0020573 60.9430 299.3906 15.04840587 2040



Live tracking and technical data element details for DRUMS TARGET-1 (NORAD 55685). DRUMS TARGET-1 can be tracked NOW for your location showing map with azimuth and elevation plus other details from your city location.







IsCatalogInMostPopularTable: catalog: 55685, numindb: 2
Update: records affected: 1



GetName: 55685 DRUMS TARGET-1

Hit Count: updated at: Wed, 22 Mar 2023 16:31:39 GMT